Content
SEND FEEDBACK

Daily
Averages
Monthly
Summary
United States of America

PUT IN BAY, OHIO


Home > North America > United States > Ohio
Elevation: 171 meters     Latitude: 41 39N     Longitude: 082 48W

WEATHER
 
SELECT A DAY
Number of Records: 122,490;   Date Range: 12/10/00 - 7/20/14
 
SHARE

PRINT THIS DATA

[ ← Previous Day ]
WEATHER ALMANAC - 14 FEBRUARY, 2013
[ Next Day → ]
[ °F ]   °C
Weather ElementAverageHighLow
Temperature0.9 °C3.3 °C (7:00 pm)-1.7 °C (1:00 am)
Dewpoint-1.2 °C0.9 °C (6:00 pm)-3.3 °C (1:00 am)
Humidity85.6 %93 % (8:00 am)64 % (7:00 pm)
Barometer1008.8 hPa1010.5 hPa (11:00 pm)1006.8 hPa (3:00 pm)
Wind Speed19.6 km/h29.6 km/h (10:00 pm)
Wind Gust44.4 km/h (10:00 pm)
Weather ElementAverage
Wind DirectionSSW (213.8 °)

Weather ElementTotal
Precipitation---
Heating Degree Days17.5 (Base 18.3)
Averaged from 26 records on 14 February, 2013
WEATHER CONDITIONS BREAKOUT
WIND DIRECTION BREAKOUT
WEATHER BY HOUR - 14 FEBRUARY, 2013
[ °F ]   °C
Local TimeTemperatureDewpointHumidityBarometerVisibilityWind DirectionWind SpeedGust SpeedPrecipitationEventsConditions
1:00 AM-1.7 °C-3.3 °C86 %1009.8 hPaSSW (200°)13 km/h
1:00 AM-1.4 °C-3.1 °C88 %1009.8 hPaSSW (200°)13 km/h
2:00 AM-1.5 °C-2.9 °C90 %1009.5 hPaSSW (200°)11.1 km/h
3:00 AM-1.2 °C-3 °C88 %1009.5 hPaSSW (200°)11.1 km/h
4:00 AM-0.4 °C-2.7 °C85 %1009.1 hPaSSW (210°)11.1 km/h
5:00 AM-0.2 °C-2.4 °C85 %1009.1 hPaSW (230°)14.8 km/h
6:00 AM-0.2 °C-1.8 °C89 %1009.1 hPaSW (220°)14.8 km/h
7:00 AM0 °C-1.7 °C84 %1009.1 hPaSW (220°)14.8 km/h
7:00 AM-0.2 °C-1.7 °C90 %1009.1 hPaSW (220°)14.8 km/h
8:00 AM-0.3 °C-1.3 °C93 %1009.5 hPaSSW (210°)14.8 km/h
9:00 AM0.9 °C-0.7 °C89 %1009.8 hPaSW (220°)16.7 km/h
10:00 AM0.9 °C-0.6 °C90 %1009.5 hPaSSW (210°)18.5 km/h29.6 km/h
11:00 AM1.4 °C-0.1 °C90 %1009.1 hPaSSW (200°)20.4 km/h
12:00 PM1.1 °C-0.1 °C92 %1008.8 hPaSouth (190°)20.4 km/h
1:00 PM1.7 °C0.6 °C91 %1007.5 hPaSouth (180°)25.9 km/h
1:00 PM1.8 °C0.7 °C92 %1007.5 hPaSouth (180°)25.9 km/h37 km/h
2:00 PM1.7 °C-0.4 °C86 %1007.5 hPaSouth (190°)22.2 km/h
3:00 PM2.1 °C0.7 °C91 %1006.8 hPaSSW (200°)24.1 km/h33.3 km/h
4:00 PM2.2 °C0.7 °C90 %1006.8 hPaSSW (200°)25.9 km/h35.2 km/h
5:00 PM1.9 °C0.6 °C91 %1006.8 hPaSSW (200°)20.4 km/h
6:00 PM2.5 °C0.9 °C89 %1007.1 hPaSSW (210°)18.5 km/h
7:00 PM3.3 °C-1.1 °C64 %1008.5 hPaWSW (250°)27.8 km/h
7:00 PM3.1 °C-1 °C75 %1008.5 hPaWSW (250°)27.8 km/h42.6 km/h
8:00 PM2.7 °C-1.6 °C74 %1008.8 hPaWSW (240°)27.8 km/h38.9 km/h
10:00 PM2.3 °C-2.5 °C71 %1010.2 hPaWest (260°)29.6 km/h44.4 km/h
11:00 PM1.8 °C-2.5 °C73 %1010.5 hPaWest (270°)25.9 km/h35.2 km/h
Hourly data recorded from CXHA, located 0 kilometers away from Put In Bay, Ohio







STORIES FROM OUR PARTNERS